Flag for Canada Weather past 2 weeks in Caledon, Ontario, Canada

Now
28 °F

Overcast.


Feels Like: 20 °F
Forecast: 0 / 26 °F
Wind: 9 mph from Northwest

Location: Borden

Current Time: Jan 30, 2015 at 12:46:21 AM

Latest Report: Jan 30, 2015 at 12:00 AM


Visibility: 9 mi

Pressure: 29.87 "Hg

Humidity: 80%

Dew point: 23 °F

Location of CaledonLocation

Historic Weather in Caledon — Graph

°F

Caledon temperature yesterday

Maximum temperature yesterday: 28 °F (at 11:00 AM)
Minimum temperature yesterday: 10 °F (at 12:00 AM)
Average temperature yesterday: 24 °F

Past Weeks' High & Low Weather Summary

 TemperatureHumidityPressure
High43 °F (Jan 18, 1:00 AM)100% (Jan 16, 9:00 PM)30.38 "Hg (Jan 16, 9:00 PM)
Low-17 °F (Jan 21, 4:00 AM)41% (Jan 26, 5:00 PM)29.42 "Hg (Jan 24, 3:01 PM)
Average15 °F77%30.00 "Hg
* Reported Midnight between Jan 14 and Jan 15 — Midnight between Jan 29 and Jan 30, Caledon, Weather by CustomWeather, © 2014

Note: Actual official high and low records may vary slightly from our data, if they occured in-between our weather recording intervals... More about our weather records

Advertising

Caledon weather history for previous 24 hours

 ConditionsComfort  
Time TempWeatherWind HumidityBarometerVisibility
12:00 AM
Jan 30
28 °FOvercast.9 mph80%29.87 "Hg9 mi
11:00 PM
Jan 29
28 °FOvercast.12 mph80%29.84 "Hg9 mi
10:00 PM28 °FOvercast.13 mph86%29.82 "Hg9 mi
9:00 PM28 °FOvercast.10 mph93%29.80 "Hg9 mi
8:01 PM27 °FLight snow. Passing clouds.2 mph93%29.75 "Hg4 mi
7:00 PM25 °FLight snow. Ice fog.2 mph100%29.77 "Hg1 mi
6:03 PM25 °FLight snow. Ice fog.2 mph100%29.72 "Hg2 mi
5:00 PM25 °FLight snow. Ice fog.3 mph100%29.74 "Hg1 mi
4:00 PM27 °FOvercast.5 mph86%29.73 "Hg9 mi
3:50 PM25 °FOvercast.5 mph93%29.69 "Hg9 mi
3:01 PM25 °FLight freezing rain. Broken clouds.9 mph93%29.70 "Hg5 mi
2:00 PM25 °FLight rain. Cloudy.8 mph93%29.75 "Hg5 mi
1:00 PM25 °FLight snow. Ice fog.13 mph93%29.80 "Hg1 mi
12:00 PM28 °FOvercast.7 mph55%29.83 "Hg9 mi
11:00 AM28 °FOvercast.9 mph55%29.85 "Hg9 mi
10:00 AM27 °FOvercast.12 mph59%29.90 "Hg9 mi
9:00 AM25 °FOvercast.10 mph69%29.96 "Hg9 mi
8:01 AM25 °FOvercast.14 mph69%29.97 "Hg9 mi
7:00 AM23 °FOvercast.14 mph74%30.06 "Hg9 mi
6:00 AM21 °FOvercast.15 mph74%30.09 "Hg9 mi
5:00 AM21 °FOvercast.14 mph68%30.10 "Hg9 mi
4:00 AM21 °FOvercast.12 mph63%30.14 "Hg9 mi
3:00 AM19 °FPassing clouds.9 mph63%30.19 "Hg9 mi
2:00 AM19 °FClear.9 mph58%30.21 "Hg9 mi
1:00 AM18 °FClear.7 mph58%30.22 "Hg9 mi
12:00 AM10 °FClear.3 mph72%30.25 "Hg9 mi
Weather by CustomWeather, © 2014

See weather overviewHow to use our weather pages